TAX73JC ENTC-EDDH

Flight info

Callsign TAX73JC
Flight time N/A
Altitude 35000
Route AMIMO DCT LIVLI/N0489F360 DCT VESER DCT OSS/N0488F350 DCT DIBVA DCT GOKEP/N0483F360 DCT ABJAZ DCT OGIRO DCT VEDAR DCT ASVAN DCT KOR DCT LOMPU/N0450F240 T148 MICOS N850 BOGMU BOGMU5A
Aircraft B77L/H-SDE1E2E3FGHIJ2J3J4J5M1RWXY/LB1D1

Departure

Time 2026-05-06 17:19
Airport Tromsø Airport (ENTC)

Arrival

Time N/A
Airport Hamburg Helmut Schmidt Airport (EDDH)
Time Latitude Longitude Altitude Speed Heading
2026-05-06 16:49 69.67752 18.90793 39 ft 0 kts 283°
2026-05-06 17:09 69.67749 18.90829 39 ft 4 kts 283°
2026-05-06 17:10 69.67743 18.90904 39 ft 4 kts 283°
2026-05-06 17:10 69.67737 18.90980 39 ft 4 kts 280°
2026-05-06 17:10 69.67734 18.91056 39 ft 4 kts 262°
2026-05-06 17:10 69.67742 18.91109 34 ft 3 kts 194°
2026-05-06 17:11 69.67732 18.91102 37 ft 4 kts 193°
2026-05-06 17:11 69.67715 18.91090 37 ft 0 kts 193°
2026-05-06 17:14 69.67713 18.91088 37 ft 2 kts 193°
2026-05-06 17:14 69.67694 18.91075 39 ft 3 kts 193°
2026-05-06 17:15 69.67669 18.91064 39 ft 4 kts 184°
2026-05-06 17:15 69.67639 18.91119 39 ft 6 kts 122°
2026-05-06 17:15 69.67626 18.91241 42 ft 6 kts 104°
2026-05-06 17:15 69.67613 18.91363 45 ft 7 kts 120°
2026-05-06 17:16 69.67569 18.91380 46 ft 8 kts 192°
2026-05-06 17:16 69.67503 18.91338 44 ft 13 kts 193°
2026-05-06 17:16 69.67399 18.91270 42 ft 17 kts 193°
2026-05-06 17:16 69.67288 18.91244 38 ft 16 kts 171°
2026-05-06 17:17 69.67255 18.91199 39 ft 2 kts 280°
2026-05-06 17:17 69.67283 18.91192 38 ft 7 kts 12°
2026-05-06 17:17 69.67285 18.91194 38 ft 0 kts 12°
2026-05-06 17:18 69.67319 18.91215 39 ft 28 kts 12°
2026-05-06 17:18 69.67873 18.91582 44 ft 134 kts 13°
2026-05-06 17:18 69.68602 18.92074 214 ft 180 kts 13°
2026-05-06 17:19 69.69810 18.92895 1509 ft 185 kts 13°
2026-05-06 17:19 69.71162 18.93765 2020 ft 213 kts 13°
2026-05-06 17:19 69.72706 18.94732 2550 ft 234 kts 12°
2026-05-06 17:19 69.74341 18.95748 3372 ft 246 kts 12°
2026-05-06 17:20 69.76056 18.96444 4151 ft 254 kts 355°
2026-05-06 17:20 69.77734 18.94883 5133 ft 257 kts 326°
2026-05-06 17:20 69.78974 18.91197 6172 ft 258 kts 300°
2026-05-06 17:20 69.79569 18.86356 7075 ft 259 kts 282°
2026-05-06 17:21 69.79955 18.81175 7924 ft 265 kts 283°
2026-05-06 17:21 69.80353 18.75963 8990 ft 265 kts 283°
2026-05-06 17:21 69.80579 18.70686 9863 ft 269 kts 264°
2026-05-06 17:21 69.79954 18.65454 10405 ft 290 kts 238°
2026-05-06 17:22 69.78423 18.61381 10839 ft 309 kts 213°
2026-05-06 17:22 69.76528 18.58263 11511 ft 319 kts 211°
2026-05-06 17:22 69.74573 18.55118 12458 ft 323 kts 211°
2026-05-06 17:22 69.72596 18.51959 13458 ft 327 kts 211°
2026-05-06 17:23 69.70593 18.48773 14343 ft 331 kts 211°
2026-05-06 17:23 69.68569 18.45548 15161 ft 335 kts 211°
2026-05-06 17:23 69.66516 18.42268 15981 ft 340 kts 211°
2026-05-06 17:23 69.64435 18.38938 16783 ft 345 kts 211°
2026-05-06 17:24 69.62330 18.35571 17603 ft 349 kts 211°
2026-05-06 17:24 69.60194 18.32158 18411 ft 353 kts 211°
2026-05-06 17:24 69.58034 18.28713 19145 ft 356 kts 211°
2026-05-06 17:24 69.55866 18.25259 19962 ft 358 kts 211°
2026-05-06 17:25 69.53679 18.21778 20640 ft 363 kts 210°
2026-05-06 17:25 69.51450 18.18256 21325 ft 368 kts 210°
2026-05-06 17:25 69.49195 18.14696 22043 ft 373 kts 210°
2026-05-06 17:25 69.46917 18.11100 22758 ft 376 kts 210°
2026-05-06 17:26 69.44614 18.07468 23460 ft 381 kts 210°
2026-05-06 17:26 69.42282 18.03802 24049 ft 385 kts 210°
2026-05-06 17:26 69.39921 18.00104 24602 ft 390 kts 210°
2026-05-06 17:26 69.37537 17.96342 25161 ft 394 kts 210°
2026-05-06 17:27 69.35147 17.92460 25724 ft 398 kts 211°
2026-05-06 17:27 69.32737 17.88502 26273 ft 403 kts 211°
2026-05-06 17:27 69.30299 17.84497 26833 ft 407 kts 211°
2026-05-06 17:27 69.27885 17.80543 27372 ft 412 kts 211°